RYR666H EIDW-LGTS

Flight info

Callsign RYR666H
Flight time N/A
Altitude 35000
Route ENDEQ3J ENDEQ Q36 ALAVA Z195 MALUD UL975 WAL M16 DOLAS DCT NAVPI DCT DODEN DCT NEGIX DCT DINKU DCT BESNI DCT LATLO/N0439F370 DCT OBEDI DCT TEBLI DCT BOSNA DCT NORPI DCT REMSO DCT MEDUX UM867 KOGAT DCT ERANA T389 ALIKO
Aircraft B738/M-SDE2E3FGHIRWXY/LB1

Departure

Time 2026-05-06 15:33
Airport Dublin Airport (EIDW)

Arrival

Time N/A
Airport Thessaloniki Macedonia International Airport (LGTS)
Time Latitude Longitude Altitude Speed Heading
2026-05-06 14:36 53.42911 -6.25030 210 ft 0 kts 185°
2026-05-06 15:13 53.42912 -6.25030 210 ft 1 kts 185°
2026-05-06 15:14 53.42927 -6.25027 211 ft 2 kts 185°
2026-05-06 15:14 53.42943 -6.25031 211 ft 2 kts 141°
2026-05-06 15:14 53.42952 -6.25053 223 ft 2 kts 114°
2026-05-06 15:14 53.42957 -6.25079 210 ft 2 kts 93°
2026-05-06 15:15 53.42958 -6.25106 215 ft 2 kts 94°
2026-05-06 15:15 53.42959 -6.25134 210 ft 2 kts 94°
2026-05-06 15:15 53.42961 -6.25160 210 ft 2 kts 94°
2026-05-06 15:15 53.42962 -6.25188 210 ft 2 kts 94°
2026-05-06 15:16 53.42963 -6.25215 210 ft 2 kts 94°
2026-05-06 15:16 53.42966 -6.25241 210 ft 2 kts 118°
2026-05-06 15:16 53.42976 -6.25264 213 ft 2 kts 138°
2026-05-06 15:16 53.42989 -6.25278 210 ft 2 kts 159°
2026-05-06 15:17 53.43004 -6.25289 210 ft 2 kts 157°
2026-05-06 15:17 53.43019 -6.25299 211 ft 0 kts 157°
2026-05-06 15:23 53.43014 -6.25296 210 ft 3 kts 155°
2026-05-06 15:23 53.42972 -6.25273 210 ft 9 kts 181°
2026-05-06 15:23 53.42920 -6.25361 210 ft 13 kts 226°
2026-05-06 15:24 53.42874 -6.25439 210 ft 16 kts 225°
2026-05-06 15:24 53.42753 -6.25513 212 ft 11 kts 156°
2026-05-06 15:24 53.42744 -6.25506 212 ft 0 kts 156°
2026-05-06 15:25 53.42742 -6.25505 212 ft 2 kts 156°
2026-05-06 15:25 53.42722 -6.25489 215 ft 8 kts 155°
2026-05-06 15:26 53.42646 -6.25508 216 ft 16 kts 222°
2026-05-06 15:26 53.42552 -6.25669 210 ft 22 kts 225°
2026-05-06 15:26 53.42436 -6.25868 218 ft 25 kts 225°
2026-05-06 15:26 53.42307 -6.26090 216 ft 28 kts 230°
2026-05-06 15:27 53.42272 -6.26405 212 ft 28 kts 275°
2026-05-06 15:27 53.42290 -6.26725 210 ft 27 kts 275°
2026-05-06 15:27 53.42307 -6.27024 215 ft 25 kts 275°
2026-05-06 15:27 53.42322 -6.27304 213 ft 23 kts 275°
2026-05-06 15:28 53.42336 -6.27569 210 ft 22 kts 275°
2026-05-06 15:28 53.42351 -6.27826 218 ft 22 kts 275°
2026-05-06 15:28 53.42365 -6.28076 210 ft 21 kts 275°
2026-05-06 15:28 53.42378 -6.28319 216 ft 21 kts 275°
2026-05-06 15:29 53.42390 -6.28552 210 ft 20 kts 275°
2026-05-06 15:29 53.42403 -6.28781 210 ft 19 kts 276°
2026-05-06 15:29 53.42408 -6.28996 213 ft 18 kts 253°
2026-05-06 15:29 53.42307 -6.29073 209 ft 17 kts 173°
2026-05-06 15:30 53.42242 -6.28994 208 ft 9 kts 94°
2026-05-06 15:30 53.42241 -6.28980 208 ft 0 kts 94°
2026-05-06 15:32 53.42241 -6.28979 208 ft 2 kts 94°
2026-05-06 15:32 53.42221 -6.28606 216 ft 65 kts 95°
2026-05-06 15:32 53.42159 -6.27494 216 ft 124 kts 95°
2026-05-06 15:33 53.42061 -6.25793 280 ft 164 kts 96°
2026-05-06 15:33 53.41947 -6.23813 706 ft 182 kts 96°
2026-05-06 15:33 53.41828 -6.21664 1439 ft 184 kts 97°
2026-05-06 15:33 53.41709 -6.19545 2269 ft 188 kts 96°
2026-05-06 15:34 53.41588 -6.17203 2593 ft 215 kts 96°
2026-05-06 15:34 53.41446 -6.14575 2916 ft 235 kts 96°
2026-05-06 15:34 53.41288 -6.11704 3230 ft 257 kts 96°
2026-05-06 15:34 53.41117 -6.08658 3919 ft 265 kts 96°
2026-05-06 15:35 53.40942 -6.05576 4794 ft 269 kts 96°
2026-05-06 15:35 53.40936 -6.02454 5606 ft 273 kts 85°
2026-05-06 15:35 53.41162 -5.99281 6477 ft 276 kts 83°
2026-05-06 15:35 53.41428 -5.96057 7211 ft 282 kts 83°
2026-05-06 15:36 53.41686 -5.92774 7994 ft 285 kts 83°
2026-05-06 15:36 53.41929 -5.89445 8694 ft 290 kts 83°
2026-05-06 15:36 53.42161 -5.86088 8992 ft 292 kts 83°
2026-05-06 15:36 53.42392 -5.82664 8993 ft 296 kts 83°
2026-05-06 15:37 53.42622 -5.79240 9041 ft 296 kts 83°
2026-05-06 15:37 53.42859 -5.75780 9556 ft 300 kts 83°
2026-05-06 15:37 53.43098 -5.72288 10366 ft 303 kts 83°
2026-05-06 15:37 53.43346 -5.68658 10613 ft 325 kts 83°
2026-05-06 15:38 53.43611 -5.64763 10875 ft 345 kts 83°
2026-05-06 15:38 53.43881 -5.60772 11458 ft 353 kts 83°
2026-05-06 15:38 53.44157 -5.56657 12166 ft 357 kts 83°
2026-05-06 15:38 53.44434 -5.52506 12895 ft 360 kts 83°
2026-05-06 15:39 53.44658 -5.48286 13546 ft 367 kts 88°
2026-05-06 15:39 53.44611 -5.43964 14077 ft 375 kts 93°
2026-05-06 15:39 53.44443 -5.39567 14724 ft 378 kts 94°
2026-05-06 15:39 53.44263 -5.35156 15396 ft 381 kts 94°
2026-05-06 15:40 53.44102 -5.30700 16055 ft 383 kts 93°
2026-05-06 15:40 53.43964 -5.26215 16686 ft 387 kts 93°
2026-05-06 15:40 53.43837 -5.21684 17316 ft 391 kts 92°
2026-05-06 15:40 53.43709 -5.17108 17954 ft 394 kts 92°
2026-05-06 15:41 53.43581 -5.12550 18526 ft 398 kts 92°
2026-05-06 15:41 53.43448 -5.07898 19066 ft 401 kts 92°
2026-05-06 15:41 53.43311 -5.03207 19603 ft 404 kts 92°
2026-05-06 15:41 53.43172 -4.98475 20139 ft 407 kts 92°
2026-05-06 15:42 53.43032 -4.93721 20659 ft 410 kts 92°
2026-05-06 15:42 53.42887 -4.88921 21178 ft 413 kts 92°
2026-05-06 15:42 53.42789 -4.85728 21513 ft 415 kts 92°